Simultaneous Nadir Overpasses (SNOs) Predictions

Prediction of SNOs between LANDSAT-8 and METOP-B Satellite Orbit:

Table of predicted SNOs for the next 14.0 days since TLE Epoch: 5/13/2023
Index Date (LANDSAT-8) Time (LANDSAT-8) Lat,Lon (LANDSAT-8) SZA (LANDSAT-8 ) Date (METOP-B) Time (METOP-B) Lat,Lon (METOP-B) SZA (METOP-B ) Distance(km) Time Diff (sec)
1 05/13/2023 06:16:34 81.12, 125.03 64.95 05/13/2023 06:15:58 81.13, 125.20 64.96 2.99 36
2 05/13/2023 07:06:00 -81.14, -67.04 115.02 05/13/2023 07:06:38 -81.14, -67.19 115.02 2.56 38
3 05/16/2023 01:50:46 81.14,-168.25 64.32 05/16/2023 01:50:16 81.14,-168.24 64.30 0.54 30
4 05/16/2023 02:40:12 -81.16, -0.30 115.65 05/16/2023 02:40:55 -81.16, -0.22 115.62 1.50 43
5 05/18/2023 21:24:59 81.14,-101.78 63.69 05/18/2023 21:24:35 81.14,-101.77 63.68 0.56 24
6 05/18/2023 22:14:25 -81.16, 66.19 116.27 05/18/2023 22:15:14 -81.16, 66.29 116.24 1.59 49
7 05/21/2023 16:59:12 81.13, -35.54 63.07 05/21/2023 16:58:54 81.14, -35.39 63.08 2.65 18
8 05/21/2023 17:48:38 -81.15, 132.46 116.89 05/21/2023 17:49:34 -81.15, 132.32 116.88 2.36 56
9 05/24/2023 12:33:23 81.13, 30.84 62.51 05/24/2023 12:33:12 81.13, 30.90 62.52 1.33 11



Historial Predications of SNOs between LANDSAT-8 and METOP-B
